Weather History for Poplar Bluff, MO

Change the Weather History Date:

Tuesday, November 13, 2012

  Actual Average Record
Temperature  
Mean Temperature 40 °F -  
Max Temperature 51 °F 58 °F 84 °F (1955)
Min Temperature 30 °F 34 °F 12 °F (1986)
Degree Days  
Heating Degree Days 24    
Moisture  
Dew Point 28 °F    
Average Humidity 65    
Maximum Humidity 89    
Minimum Humidity 35    
Precipitation  
Precipitation 0.00 in - - ()
Sea Level Pressure  
Sea Level Pressure 30.49 in    
Wind  
Wind Speed 2 mph (NE)    
Max Wind Speed 8 mph    
Max Gust Speed -    
Visibility 10 miles    
Events      
Averages and records for this station are not official NWS values.
T = Trace of Precipitation, MM = Missing Value Source: NWS Daily Summary

Daily Weather History Graph

Daily Weather History Graph

Search for Another Location

Airport:

Trip Planner

Search our weather history database for the weather conditions in past years. The results will help you decide how hot, cold, wet, or windy it might be!

Date:

Astronomy

Nov. 13, 2012 Rise Set
Actual Time 6:37 AM CST 4:53 PM CST
Civil Twilight 6:10 AM CST 5:20 PM CST
Nautical Twilight 5:39 AM CST 5:51 PM CST
Astronomical Twilight 5:08 AM CST 6:22 PM CST
Moon 6:15 AM CST (11/13) 4:47 PM CST (11/13)
Length of Visible Light 11h 10m
Length of Day
10h 15m
Waning Crescent, 0% of the Moon is Illuminated
Nov 13
Waning Crescent
Nov 13
New
Nov 20
First Quarter
Nov 28
Full
Dec 6
Last Quarter

Hourly Weather History & Observations

Time (CST) Temp. Windchill Dew Point Humidity Pressure Visibility Wind Dir Wind Speed Gust Speed Precip Events Conditions
12:53 AM 32.0 °F - 28.0 °F 85% 30.49 in 10.0 mi Calm Calm - N/A   Clear
1:53 AM 32.0 °F - 26.1 °F 79% 30.49 in 10.0 mi Calm Calm - N/A   Clear
2:53 AM 30.9 °F 27.5 °F 26.1 °F 82% 30.49 in 10.0 mi NW 3.5 mph - N/A   Clear
3:53 AM 30.9 °F - 25.0 °F 79% 30.50 in 10.0 mi Calm Calm - N/A   Clear
4:53 AM 30.9 °F - 24.1 °F 76% 30.51 in 10.0 mi Calm Calm - N/A   Clear
6:53 AM 30.0 °F - 24.1 °F 79% 30.54 in 10.0 mi Calm Calm - N/A   Clear
7:53 AM 34.0 °F 31.0 °F 26.1 °F 73% 30.55 in 10.0 mi NNW 3.5 mph - N/A   Clear
8:53 AM 39.9 °F 37.8 °F 27.0 °F 60% 30.56 in 10.0 mi North 3.5 mph - N/A   Clear
9:53 AM 45.0 °F 40.6 °F 30.0 °F 56% 30.56 in 10.0 mi NE 8.1 mph - N/A   Clear
10:53 AM 48.0 °F - 28.0 °F 46% 30.54 in 10.0 mi Variable 4.6 mph - N/A   Clear
11:53 AM 50.0 °F - 25.0 °F 38% 30.51 in 10.0 mi ENE 5.8 mph - N/A   Clear
12:53 PM 51.1 °F - 25.0 °F 36% 30.48 in 10.0 mi NE 5.8 mph - N/A   Clear
1:53 PM 51.1 °F - 24.1 °F 35% 30.45 in 10.0 mi Variable 6.9 mph - N/A   Clear
2:53 PM 51.1 °F - 26.1 °F 38% 30.44 in 10.0 mi East 6.9 mph - N/A   Clear
3:53 PM 50.0 °F - 26.1 °F 39% 30.45 in 10.0 mi East 6.9 mph - N/A   Clear
4:53 PM 46.0 °F 43.9 °F 28.9 °F 51% 30.45 in 10.0 mi SE 4.6 mph - N/A   Clear
5:53 PM 43.0 °F 40.3 °F 30.0 °F 60% 30.46 in 10.0 mi ESE 4.6 mph - N/A   Clear
6:53 PM 39.9 °F - 32.0 °F 73% 30.46 in 10.0 mi Calm Calm - N/A   Clear
7:53 PM 37.9 °F - 32.0 °F 79% 30.47 in 10.0 mi Calm Calm - N/A   Clear
8:53 PM 34.0 °F 31.0 °F 30.9 °F 89% 30.48 in 10.0 mi NNE 3.5 mph - N/A   Clear
9:53 PM 36.0 °F - 30.0 °F 79% 30.48 in 10.0 mi Calm Calm - N/A   Clear
10:53 PM 36.0 °F - 28.0 °F 73% 30.47 in 10.0 mi Calm Calm - N/A   Clear
11:53 PM 34.0 °F - 30.0 °F 85% 30.47 in 10.0 mi Calm Calm - N/A   Clear